User: anonymous
Location: Drayton Valley
(53.2170°N, 114.9830°W)
Time: 15:30:20
(UTC-06:00)
Language:

MOZ.5/SAFIR/RUBIN 5/SL-8 - Orbit

View from above orbital plane
View from above orbital plane
View from above satellite
View from above satellite

Ground track
Ground track

The orbit data is extracted from the following two-line orbital elements,

1 28898U 05043G   14259.47552054  .00000448  00000-0  10311-3 0  9175
2 28898 097.8367 084.0085 0021474 108.5629 281.5455 14.59538470473247
Epoch (UTC): 16 September 2014 11:24:44
Eccentricity: 0.0021474
inclination: 97.8367°
perigee height: 679 km
apogee height: 710 km
right ascension of ascending node: 84.0085°
argument of perigee: 108.5629°
revolutions per day: 14.59538470
mean anomaly at epoch: 281.5455°
orbit number at epoch: 47324

The dashed part of the orbit path shows where the satellite is in the earth's shadow,  

DLR